Wind_Speed
17 17 17 18 18 18 18 19 19 19 19 19 20 20 20 20 20 20 20 20 20 20 20 21 21 21 21 21 21 21 22 22 23 23 24 24 25 26
20 21 21 21 21 21 21 22 22 22 23 23 23 23 23 23 23 23 23 24 24 24 24 24 24 24 24 24 24 25 25 25 25 26 26 26 27 27
23 24 24 24 25 25 25 25 25 25 26 26 26 26 27 27 27 27 27 27 28 28 28 28 28 28 28 28 28 28 28 28 28 28 29 29 29 29
27 27 28 28 28 28 28 28 28 28 28 29 29 30 30 30 30 31 31 31 31 31 31 31 31 32 32 32 32 32 32 32 32 32 32 32 32 32
30 30 31 31 32 32 32 32 32 32 32 32 33 34 34 34 35 35 35 35 35 35 35 35 35 35 35 35 36 36 36 36 36 36 35 35 35 35
33 34 35 34 34 34 35 35 36 36 36 36 36 37 37 38 38 39 39 39 39 39 39 39 39 39 39 39 39 39 39 39 39 39 39 39 38 38
37 37 37 37 37 37 38 38 39 39 40 40 39 40 40 41 41 42 41 41 41 42 42 42 43 42 42 42 43 43 43 42 42 42 42 42 41 41
39 40 40 40 41 41 41 42 42 43 43 43 43 43 42 44 44 45 45 44 44 43 45 45 45 45 45 45 46 46 46 45 45 45 45 44 44 44
42 43 43 43 43 44 45 45 45 46 46 47 47 46 46 46 48 48 49 49 48 47 48 47 47 48 48 49 49 49 49 49 48 48 47 47 46 46
44 45 45 46 46 46 47 48 49 49 50 50 50 50 50 51 52 52 52 52 52 51 52 51 50 51 52 52 53 53 53 53 53 52 52 51 50 49
44 45 45 46 46 48 49 49 50 51 52 52 52 53 53 54 55 55 55 55 55 54 55 56 55 56 55 55 56 57 58 58 57 57 56 56 55 54
45 45 46 47 48 49 50 50 50 51 52 52 53 54 55 56 57 58 59 60 60 59 60 61 61 62 60 59 60 61 62 62 62 61 61 61 60 60
46 47 48 49 49 50 50 51 51 52 52 53 54 56 58 59 60 62 63 64 64 64 65 66 66 66 66 64 63 63 64 65 65 65 64 64 64 64
46 48 49 50 51 52 53 54 55 56 57 57 58 59 60 62 63 65 66 67 68 68 68 69 69 69 69 68 66 65 65 65 66 66 67 66 66 66
49 50 51 52 53 55 56 57 58 60 60 61 61 62 63 64 66 67 68 68 68 69 69 70 70 70 70 69 68 67 67 66 66 67 67 67 67 67
52 52 53 55 56 57 58 60 61 62 62 63 64 64 65 65 66 66 66 66 66 66 68 69 69 69 68 68 68 68 69 68 68 69 69 69 68 68
54 55 56 57 58 59 60 61 62 62 63 63 63 63 63 63 63 63 63 63 63 63 64 65 66 67 67 67 67 67 67 67 67 67 67 67 67 67
55 55 56 57 58 58 58 58 59 59 59 59 59 59 59 58 58 59 60 60 60 59 59 60 61 61 62 61 61 62 62 62 63 63 64 65 64 63
55 55 56 56 55 55 56 55 55 55 55 55 55 55 55 55 55 54 54 54 54 54 54 54 54 55 55 53 52 55 56 55 56 57 58 60 60 59
55 55 54 54 53 53 53 52 52 51 51 50 49 48 48 47 47 47 47 47 47 47 47 47 47 47 47 46 45 45 48 49 49 49 50 52 52 53
52 52 51 50 49 49 48 47 46 45 44 43 43 42 41 41 40 40 40 40 40 40 39 40 40 41 41 40 38 38 40 42 44 44 44 45 45 45
48 47 45 44 43 42 42 40 39 38 38 37 37 36 36 36 35 35 35 35 35 35 34 34 34 34 35 35 34 33 33 35 37 37 38 39 39 38
43 41 40 39 38 37 36 35 34 33 33 32 32 32 32 32 31 31 31 31 31 31 31 30 29 30 30 31 30 29 28 29 31 31 32 33 34 33
Wind_Direction
265 268 270 273 274 275 275 274 274 274 274 276 276 277 277 276 276 274 273 273 273 273 273 274 273 273 272 271 271 270 269 269 268 267 266 265 264 263
267 269 270 272 273 274 275 274 275 275 275 275 275 275 276 275 275 274 274 274 273 272 272 272 272 272 272 272 271 271 270 270 269 268 267 266 265 264
269 270 271 272 272 273 273 273 273 273 274 274 274 274 275 275 274 274 274 273 273 273 272 272 272 272 271 271 271 271 271 271 270 270 269 268 266 265
271 272 273 273 273 273 272 272 272 272 273 273 273 273 273 274 274 273 273 273 273 272 272 272 271 271 271 271 271 270 270 270 270 270 270 269 267 266
272 272 274 274 274 273 273 273 273 273 273 273 273 273 272 273 273 272 273 272 272 272 272 272 272 271 270 270 270 270 270 269 269 269 269 268 268 267
273 273 273 274 274 274 274 274 274 274 274 274 273 273 272 272 272 272 272 273 272 272 271 271 271 271 271 271 270 270 269 269 268 268 268 268 267 267
274 274 274 273 273 273 274 275 275 274 275 275 274 273 273 273 273 273 273 273 273 273 272 271 271 271 271 270 270 269 269 268 268 267 267 267 266 266
274 275 275 275 274 274 274 275 275 275 275 275 274 274 274 275 275 275 275 274 273 273 272 272 271 271 271 270 270 270 269 269 268 267 267 267 266 265
274 275 276 276 276 274 274 275 275 275 276 276 275 275 275 275 275 275 275 275 275 274 272 272 271 271 271 270 270 270 270 270 269 268 267 266 266 265
275 275 276 276 276 276 276 276 275 275 275 276 275 275 276 276 275 275 275 275 274 274 274 273 271 271 271 271 271 271 270 270 269 268 268 267 266 265
279 278 277 277 277 277 276 276 276 276 276 276 276 277 277 277 277 276 276 275 275 274 274 274 272 271 270 270 271 271 270 270 269 268 268 267 266 265
279 278 278 278 277 277 277 277 277 277 277 278 278 277 277 277 278 277 276 276 275 275 275 274 274 273 271 270 270 270 270 270 269 268 268 267 266 265
280 280 279 279 278 278 278 278 278 278 278 278 278 277 278 278 277 277 277 277 277 276 275 274 274 273 273 271 269 270 270 269 269 268 267 266 265 264
280 280 280 279 279 279 279 279 279 278 279 279 278 278 278 278 278 278 278 278 277 277 276 276 275 274 273 272 271 269 269 269 268 268 267 266 265 264
281 280 280 280 280 280 280 280 280 280 280 279 279 279 279 278 278 278 278 278 278 277 276 276 275 274 274 272 271 269 269 268 268 268 267 266 264 263
283 282 282 282 282 282 282 282 282 281 281 281 280 280 280 280 280 279 278 278 278 278 277 277 276 275 274 273 272 270 269 268 268 267 266 265 264 263
284 284 284 284 284 284 283 283 283 282 282 281 281 281 281 281 280 280 279 279 279 278 278 278 278 277 275 274 273 272 271 269 268 268 266 264 263 262
286 286 286 286 285 285 285 285 285 285 285 284 284 284 283 282 282 282 282 281 280 280 279 278 278 278 277 277 276 274 272 271 270 268 267 265 263 261
287 287 287 286 286 286 286 287 287 286 286 286 285 285 285 284 283 283 283 283 282 282 282 281 280 279 278 277 276 276 275 273 271 268 267 265 264 261
289 289 288 288 288 288 288 288 288 288 287 288 288 287 287 286 286 286 286 285 285 284 284 283 283 282 282 279 277 276 276 274 272 270 268 266 264 261
292 291 291 290 290 291 291 291 290 290 289 289 289 289 288 288 289 289 288 288 289 288 287 286 285 284 283 282 280 278 276 274 273 272 269 266 263 260
295 294 294 293 293 293 294 293 293 292 292 292 291 291 291 292 291 290 291 292 292 292 291 290 287 286 286 285 284 282 278 275 274 274 271 267 264 260
297 296 295 295 295 295 295 295 295 295 293 293 294 294 295 295 294 293 293 294 294 294 293 292 290 289 290 289 288 286 282 278 276 274 272 269 265 259
Height
5868 5868 5869 5869 5869 5868 5868 5868 5868 5867 5866 5866 5865 5864 5863 5862 5862 5861 5860 5860 5859 5859 5858 5858 5857 5857 5856 5856 5856 5855 5855 5855 5855 5855 5855 5855 5855 5856
5864 5864 5864 5864 5863 5863 5863 5863 5862 5862 5861 5860 5859 5858 5857 5857 5856 5856 5855 5854 5854 5853 5852 5852 5851 5851 5850 5850 5850 5849 5849 5849 5849 5849 5849 5849 5849 5849
5858 5858 5858 5858 5857 5857 5857 5856 5856 5856 5855 5854 5853 5852 5851 5850 5849 5849 5848 5847 5847 5846 5846 5845 5845 5844 5844 5843 5843 5842 5842 5842 5842 5842 5841 5841 5841 5842
5852 5852 5851 5851 5850 5850 5849 5849 5849 5848 5848 5847 5846 5845 5844 5842 5842 5841 5840 5839 5839 5838 5838 5837 5837 5836 5836 5835 5835 5834 5834 5834 5833 5833 5833 5833 5833 5833
5844 5844 5843 5843 5842 5842 5841 5841 5840 5840 5839 5839 5837 5836 5835 5834 5833 5832 5831 5830 5830 5829 5829 5828 5827 5827 5826 5826 5826 5825 5825 5824 5824 5824 5824 5824 5824 5824
5836 5835 5835 5834 5833 5832 5832 5832 5831 5830 5829 5829 5828 5827 5825 5824 5823 5822 5821 5820 5820 5819 5818 5817 5817 5816 5816 5816 5815 5815 5814 5814 5814 5814 5814 5814 5814 5814
5827 5826 5825 5824 5823 5822 5822 5821 5820 5819 5818 5817 5817 5816 5815 5813 5811 5811 5810 5810 5809 5808 5807 5806 5805 5805 5804 5804 5803 5803 5802 5802 5802 5802 5802 5803 5803 5803
5817 5816 5815 5814 5813 5812 5810 5809 5808 5807 5806 5805 5804 5804 5803 5801 5799 5799 5798 5797 5797 5797 5794 5794 5793 5793 5792 5791 5790 5790 5789 5790 5790 5790 5790 5791 5791 5791
5806 5805 5803 5802 5801 5800 5799 5797 5796 5794 5793 5792 5791 5791 5790 5788 5787 5786 5784 5783 5783 5783 5781 5782 5780 5779 5778 5777 5776 5776 5776 5775 5776 5776 5777 5777 5778 5778
5795 5793 5792 5791 5789 5787 5786 5785 5783 5781 5780 5778 5777 5776 5775 5773 5772 5771 5769 5768 5768 5768 5765 5765 5766 5765 5764 5762 5762 5761 5760 5760 5760 5760 5761 5762 5763 5764
5783 5781 5780 5778 5776 5775 5773 5771 5769 5767 5765 5764 5763 5761 5759 5757 5755 5754 5753 5752 5752 5752 5749 5748 5748 5748 5748 5748 5746 5744 5743 5743 5743 5744 5744 5745 5746 5747
5771 5769 5767 5765 5763 5761 5759 5757 5756 5754 5751 5749 5747 5745 5743 5741 5739 5737 5735 5734 5733 5734 5733 5730 5729 5727 5729 5731 5729 5727 5725 5725 5725 5725 5726 5727 5728 5729
5758 5756 5754 5751 5749 5747 5744 5742 5740 5738 5736 5734 5732 5729 5727 5724 5721 5719 5717 5715 5714 5714 5712 5709 5709 5707 5707 5710 5710 5708 5706 5705 5705 5705 5706 5707 5708 5709
5745 5742 5739 5737 5734 5731 5729 5727 5724 5722 5720 5718 5715 5712 5709 5707 5703 5700 5697 5695 5693 5692 5690 5687 5686 5685 5684 5685 5687 5687 5685 5684 5683 5684 5684 5685 5686 5688
5731 5728 5725 5722 5719 5715 5712 5710 5707 5704 5702 5699 5696 5693 5690 5687 5684 5681 5678 5675 5673 5670 5667 5664 5662 5661 5661 5662 5663 5664 5663 5663 5661 5661 5661 5662 5664 5666
5715 5712 5709 5705 5702 5698 5695 5692 5689 5685 5682 5680 5676 5673 5670 5667 5663 5660 5657 5654 5652 5650 5645 5642 5639 5638 5638 5638 5638 5639 5639 5639 5639 5638 5638 5639 5641 5643
5699 5695 5692 5688 5684 5680 5677 5673 5669 5666 5662 5659 5656 5653 5650 5646 5643 5640 5637 5634 5631 5629 5626 5621 5617 5615 5614 5614 5614 5615 5614 5614 5614 5613 5613 5615 5619 5620
5682 5678 5674 5670 5666 5662 5659 5654 5650 5646 5643 5640 5636 5633 5630 5627 5624 5620 5616 5613 5611 5608 5605 5602 5597 5594 5593 5593 5592 5590 5591 5591 5591 5590 5590 5592 5596 5599
5666 5661 5657 5653 5649 5645 5641 5637 5633 5629 5625 5621 5618 5614 5611 5608 5605 5601 5598 5594 5591 5589 5586 5582 5578 5574 5573 5575 5575 5569 5568 5569 5568 5569 5569 5569 5573 5577
5648 5644 5640 5636 5632 5628 5624 5620 5616 5612 5608 5605 5601 5598 5594 5591 5588 5585 5581 5578 5575 5572 5569 5565 5561 5557 5555 5556 5557 5555 5550 5549 5549 5550 5550 5550 5552 5555
5631 5627 5623 5619 5615 5612 5608 5604 5601 5597 5594 5590 5587 5584 5580 5577 5574 5571 5567 5564 5560 5557 5554 5551 5547 5544 5541 5540 5541 5541 5538 5534 5533 5533 5533 5534 5535 5538
5616 5612 5608 5604 5601 5597 5594 5590 5587 5584 5581 5578 5574 5571 5568 5565 5562 5559 5555 5552 5549 5545 5542 5539 5536 5533 5530 5528 5527 5527 5526 5523 5520 5519 5519 5520 5520 5523
5603 5599 5595 5592 5588 5585 5582 5579 5576 5573 5569 5566 5563 5560 5557 5554 5551 5548 5545 5541 5538 5535 5532 5529 5526 5523 5521 5518 5516 5515 5514 5512 5511 5510 5509 5508 5509 5511